sat.trackr.live / text

‹ back to catalog

SHIJIAN-30C (SJ-30C)

NORAD 66547 · 2025-266C

PAYLOAD ACTIVE UNKNOWN

§ Identity

Operator
Country
PRC
Launch date
2025-11-19
Launch site
JSC
Launch vehicle
Mass (kg)
RCS (m²)

External: N2YO · Heavens-Above · Gunter

§ Orbital elements

Epoch: 2026-09-20T22:06:34.945920Z

Period
95.01 min
Inclination
51.7957°
Eccentricity
0.0006429
Mean motion
15.15593457 rev/d
Perigee alt
514.7 km
Apogee alt
523.6 km
Semi-major
6,897.3 km
B*
2.6173e-4
RAAN
90.9053°
Arg perigee
206.9276°
Mean anomaly
153.1367°
Rev number
4,637

§ Raw data

SHIJIAN-30C (SJ-30C)1 66547U 25266C   26263.92123780  .00004727  00000+0  26173-3 0  99912 66547  51.7957  90.9053 0006429 206.9276 153.1367 15.15593457 46374

JSON: /api/v1/satellites/66547 · /tle

For live sub-satellite position, see the globe view (requires WebGL).

§ Visibility from observer

Set your observer location to see the next 7 days of passes ≥ 10°. The values pass through the URL so the page stays shareable.

No JS? Fill the form by hand. The geolocation button needs JavaScript.